MQC9207 FMCH-FQMA

Flight info

Callsign MQC9207
Flight time 2h 29m
Altitude 32000
Route HAI DCT VNC UT547 VNP UW19 IMTAG IMTAG1B
Aircraft A306/H-SDE3FGHIRWY/LB1

Departure

Time 2026-04-29 14:38
Airport Prince Said Ibrahim International Airport (FMCH)

Arrival

Time 2026-04-29 17:07
Airport Maputo Airport (FQMA)
Time Latitude Longitude Altitude Speed Heading
2026-04-29 14:13 -11.53445 43.27429 85 ft 0 kts 220°
2026-04-29 14:33 -11.53449 43.27426 85 ft 3 kts 220°
2026-04-29 14:33 -11.53483 43.27397 89 ft 9 kts 215°
2026-04-29 14:33 -11.53568 43.27377 88 ft 16 kts 189°
2026-04-29 14:33 -11.53673 43.27335 88 ft 15 kts 245°
2026-04-29 14:34 -11.53665 43.27232 84 ft 16 kts 281°
2026-04-29 14:34 -11.53609 43.27145 88 ft 17 kts 351°
2026-04-29 14:34 -11.53475 43.27167 90 ft 23 kts 11°
2026-04-29 14:34 -11.53302 43.27197 91 ft 28 kts
2026-04-29 14:35 -11.53119 43.27232 91 ft 26 kts
2026-04-29 14:35 -11.52950 43.27260 89 ft 24 kts
2026-04-29 14:35 -11.52795 43.27288 90 ft 22 kts 11°
2026-04-29 14:35 -11.52635 43.27319 88 ft 25 kts 10°
2026-04-29 14:36 -11.52450 43.27351 86 ft 28 kts
2026-04-29 14:36 -11.52268 43.27382 83 ft 26 kts
2026-04-29 14:36 -11.52126 43.27438 89 ft 17 kts 29°
2026-04-29 14:36 -11.52098 43.27419 87 ft 4 kts 246°
2026-04-29 14:37 -11.52117 43.27409 88 ft 2 kts 192°
2026-04-29 14:37 -11.52180 43.27396 88 ft 19 kts 189°
2026-04-29 14:37 -11.52517 43.27338 87 ft 78 kts 189°
2026-04-29 14:37 -11.53220 43.27196 92 ft 127 kts 188°
2026-04-29 14:38 -11.54256 43.27024 203 ft 167 kts 191°
2026-04-29 14:38 -11.55449 43.26801 848 ft 179 kts 190°
2026-04-29 14:38 -11.56727 43.26502 1443 ft 197 kts 199°
2026-04-29 14:38 -11.57817 43.25668 2063 ft 203 kts 225°
2026-04-29 14:39 -11.58792 43.24628 2771 ft 206 kts 219°
2026-04-29 14:39 -11.59907 43.23651 3395 ft 219 kts 216°
2026-04-29 14:39 -11.61174 43.22631 3781 ft 243 kts 214°
2026-04-29 14:39 -11.62534 43.21540 4406 ft 254 kts 215°
2026-04-29 14:40 -11.63922 43.20403 5152 ft 258 kts 215°
2026-04-29 14:40 -11.65332 43.19221 5812 ft 267 kts 215°
2026-04-29 14:40 -11.66765 43.17995 6543 ft 271 kts 218°
2026-04-29 14:40 -11.68220 43.16736 7212 ft 277 kts 218°
2026-04-29 14:41 -11.69697 43.15449 7973 ft 281 kts 218°
2026-04-29 14:41 -11.71198 43.14139 8694 ft 287 kts 218°
2026-04-29 14:41 -11.72730 43.12803 9388 ft 293 kts 218°
2026-04-29 14:41 -11.74288 43.11445 10091 ft 298 kts 219°
2026-04-29 14:42 -11.75912 43.10032 10465 ft 315 kts 219°
2026-04-29 14:42 -11.77630 43.08538 10695 ft 333 kts 219°
2026-04-29 14:42 -11.79440 43.06966 10915 ft 350 kts 219°
2026-04-29 14:42 -11.81333 43.05321 11147 ft 365 kts 219°
2026-04-29 14:43 -11.83299 43.03610 11344 ft 378 kts 219°
2026-04-29 14:43 -11.85334 43.01839 11581 ft 389 kts 219°
2026-04-29 14:43 -11.87407 43.00033 11996 ft 394 kts 219°
2026-04-29 14:43 -11.89501 42.98208 12415 ft 398 kts 219°
2026-04-29 14:44 -11.91620 42.96362 12841 ft 402 kts 219°
2026-04-29 14:44 -11.93749 42.94507 13326 ft 404 kts 219°
2026-04-29 14:44 -11.95895 42.92636 13727 ft 408 kts 219°
2026-04-29 14:44 -11.98065 42.90745 14105 ft 411 kts 219°
2026-04-29 14:45 -12.00242 42.88849 14521 ft 413 kts 219°
2026-04-29 14:45 -12.02441 42.86932 14820 ft 418 kts 218°
2026-04-29 14:45 -12.04661 42.84997 15240 ft 420 kts 218°
2026-04-29 14:45 -12.06886 42.83056 15646 ft 422 kts 218°
2026-04-29 14:46 -12.09127 42.81101 15999 ft 425 kts 218°
2026-04-29 14:46 -12.11379 42.79135 16434 ft 427 kts 219°
2026-04-29 14:46 -12.13644 42.77159 16793 ft 430 kts 218°
2026-04-29 14:46 -12.15922 42.75170 17149 ft 432 kts 218°
2026-04-29 14:47 -12.18219 42.73165 17486 ft 435 kts 218°
2026-04-29 14:47 -12.20526 42.71150 17827 ft 438 kts 218°
2026-04-29 14:47 -12.22849 42.69120 18165 ft 440 kts 218°
2026-04-29 14:47 -12.25154 42.67107 18440 ft 443 kts 218°
2026-04-29 14:48 -12.27533 42.65027 18715 ft 445 kts 218°
2026-04-29 14:48 -12.29893 42.62964 18973 ft 447 kts 218°
2026-04-29 14:48 -12.32228 42.60922 19259 ft 449 kts 218°
2026-04-29 14:48 -12.34608 42.58839 19505 ft 451 kts 218°
2026-04-29 14:49 -12.36997 42.56749 19765 ft 453 kts 218°
2026-04-29 14:49 -12.39395 42.54650 20006 ft 455 kts 218°
2026-04-29 14:49 -12.41805 42.52541 20245 ft 457 kts 218°
2026-04-29 14:49 -12.44221 42.50426 20495 ft 458 kts 217°
2026-04-29 14:50 -12.46645 42.48303 20730 ft 460 kts 217°
2026-04-29 14:50 -12.49080 42.46169 20937 ft 462 kts 217°
2026-04-29 14:50 -12.51528 42.44025 21149 ft 464 kts 217°
2026-04-29 14:50 -12.53986 42.41870 21381 ft 466 kts 217°
2026-04-29 14:51 -12.56450 42.39710 21616 ft 467 kts 217°
2026-04-29 14:51 -12.58924 42.37541 21840 ft 469 kts 217°
2026-04-29 14:51 -12.61400 42.35368 22057 ft 470 kts 217°
2026-04-29 14:51 -12.63890 42.33184 22276 ft 472 kts 217°
2026-04-29 14:52 -12.66382 42.30997 22500 ft 473 kts 217°
2026-04-29 14:52 -12.68883 42.28801 22701 ft 474 kts 217°
2026-04-29 14:52 -12.71393 42.26597 22901 ft 476 kts 217°
2026-04-29 14:52 -12.73912 42.24384 23106 ft 477 kts 217°
2026-04-29 14:53 -12.76434 42.22169 23305 ft 479 kts 217°
2026-04-29 14:53 -12.78966 42.19944 23493 ft 480 kts 217°
2026-04-29 14:53 -12.81505 42.17712 23638 ft 482 kts 217°
2026-04-29 14:53 -12.84054 42.15470 23807 ft 483 kts 217°
2026-04-29 14:54 -12.86604 42.13226 23969 ft 484 kts 217°
2026-04-29 14:54 -12.89127 42.11006 24139 ft 485 kts 218°
2026-04-29 14:54 -12.91685 42.08755 24300 ft 485 kts 218°
2026-04-29 14:54 -12.94244 42.06501 24457 ft 486 kts 218°
2026-04-29 14:55 -12.96812 42.04241 24613 ft 487 kts 218°
2026-04-29 14:55 -12.99387 42.01973 24765 ft 488 kts 218°
2026-04-29 14:55 -13.01961 41.99704 24917 ft 489 kts 218°
2026-04-29 14:55 -13.04542 41.97430 25072 ft 490 kts 218°
2026-04-29 14:56 -13.07128 41.95150 25218 ft 490 kts 218°
2026-04-29 14:56 -13.09713 41.92871 25384 ft 491 kts 218°
2026-04-29 14:56 -13.12307 41.90583 25523 ft 492 kts 218°
2026-04-29 14:56 -13.14900 41.88295 25682 ft 492 kts 218°
2026-04-29 14:57 -13.17498 41.86002 25822 ft 493 kts 218°
2026-04-29 14:57 -13.20101 41.83704 25955 ft 494 kts 218°
2026-04-29 14:57 -13.22708 41.81402 26095 ft 495 kts 218°
2026-04-29 14:57 -13.25318 41.79097 26228 ft 495 kts 218°
2026-04-29 14:58 -13.27933 41.76786 26364 ft 496 kts 218°
2026-04-29 14:58 -13.30550 41.74473 26493 ft 497 kts 218°
2026-04-29 14:58 -13.33173 41.72154 26621 ft 498 kts 218°
2026-04-29 14:58 -13.35799 41.69832 26750 ft 499 kts 218°
2026-04-29 14:59 -13.38427 41.67507 26855 ft 500 kts 218°
2026-04-29 14:59 -13.41065 41.65174 26997 ft 500 kts 218°
2026-04-29 14:59 -13.43701 41.62840 27097 ft 501 kts 218°
2026-04-29 14:59 -13.46343 41.60501 27210 ft 502 kts 218°
2026-04-29 15:00 -13.48987 41.58159 27357 ft 502 kts 218°
2026-04-29 15:00 -13.51627 41.55820 27539 ft 501 kts 218°
2026-04-29 15:00 -13.54262 41.53484 27708 ft 500 kts 219°
2026-04-29 15:00 -13.56897 41.51148 27880 ft 500 kts 218°
2026-04-29 15:01 -13.59526 41.48817 28070 ft 499 kts 218°
2026-04-29 15:01 -13.62153 41.46486 28236 ft 499 kts 219°
2026-04-29 15:01 -13.64776 41.44159 28449 ft 498 kts 218°
2026-04-29 15:01 -13.67399 41.41831 28598 ft 498 kts 218°
2026-04-29 15:02 -13.69983 41.39537 28821 ft 497 kts 219°
2026-04-29 15:02 -13.72602 41.37211 28988 ft 497 kts 219°
2026-04-29 15:02 -13.75212 41.34892 29219 ft 496 kts 219°
2026-04-29 15:02 -13.77825 41.32569 29359 ft 497 kts 219°
2026-04-29 15:03 -13.80432 41.30252 29603 ft 495 kts 218°
2026-04-29 15:03 -13.83031 41.27940 29834 ft 494 kts 218°
2026-04-29 15:03 -13.85632 41.25626 30027 ft 494 kts 219°
2026-04-29 15:03 -13.88225 41.23318 30217 ft 493 kts 218°
2026-04-29 15:04 -13.90820 41.21009 30370 ft 493 kts 219°
2026-04-29 15:04 -13.93408 41.18704 30583 ft 491 kts 218°
2026-04-29 15:04 -13.95993 41.16404 30733 ft 492 kts 218°
2026-04-29 15:04 -13.98575 41.14106 30972 ft 490 kts 219°
2026-04-29 15:05 -14.01154 41.11808 31111 ft 490 kts 219°
2026-04-29 15:05 -14.02894 41.10256 31229 ft 490 kts 219°
2026-04-29 15:05 -14.06301 41.07219 31477 ft 489 kts 220°
2026-04-29 15:05 -14.08868 41.04930 31709 ft 487 kts 219°
2026-04-29 15:06 -14.11426 41.02646 31922 ft 486 kts 219°
2026-04-29 15:06 -14.16515 40.98101 32006 ft 481 kts 219°
2026-04-29 15:07 -14.21554 40.93599 32005 ft 479 kts 219°
2026-04-29 15:07 -14.26590 40.89099 32008 ft 479 kts 219°
2026-04-29 15:08 -14.30777 40.85355 32011 ft 480 kts 220°
2026-04-29 15:08 -14.35820 40.80843 32008 ft 480 kts 219°
2026-04-29 15:09 -14.40848 40.76341 32014 ft 476 kts 220°
2026-04-29 15:09 -14.45567 40.71574 32011 ft 476 kts 231°
2026-04-29 15:10 -14.48916 40.65674 32016 ft 477 kts 242°
2026-04-29 15:10 -14.51725 40.59451 32017 ft 478 kts 245°
2026-04-29 15:11 -14.54441 40.53177 32020 ft 479 kts 245°
2026-04-29 15:11 -14.57175 40.46908 32024 ft 479 kts 245°
2026-04-29 15:12 -14.59927 40.40652 32021 ft 478 kts 244°
2026-04-29 15:12 -14.62687 40.34397 32024 ft 478 kts 244°
2026-04-29 15:13 -14.65424 40.28187 32023 ft 479 kts 245°
2026-04-29 15:13 -14.68180 40.21927 32031 ft 479 kts 244°
2026-04-29 15:14 -14.70931 40.15671 32027 ft 478 kts 245°
2026-04-29 15:14 -14.73682 40.09410 32032 ft 478 kts 245°
2026-04-29 15:15 -14.76450 40.03164 32035 ft 478 kts 245°
2026-04-29 15:15 -14.79232 39.96918 32038 ft 479 kts 245°
2026-04-29 15:16 -14.82012 39.90672 32039 ft 479 kts 244°
2026-04-29 15:16 -14.84791 39.84419 32045 ft 478 kts 244°
2026-04-29 15:17 -14.87565 39.78166 32045 ft 479 kts 245°
2026-04-29 15:17 -14.90340 39.71906 32047 ft 479 kts 245°
2026-04-29 15:18 -14.93114 39.65643 32048 ft 479 kts 244°
2026-04-29 15:18 -14.95885 39.59381 32046 ft 479 kts 245°
2026-04-29 15:19 -14.98655 39.53117 32050 ft 479 kts 245°
2026-04-29 15:19 -15.01426 39.46843 32054 ft 480 kts 245°
2026-04-29 15:20 -15.04195 39.40569 32052 ft 480 kts 245°
2026-04-29 15:20 -15.07056 39.34343 32104 ft 479 kts 239°
2026-04-29 15:21 -15.11245 39.29100 32096 ft 477 kts 218°
2026-04-29 15:21 -15.16794 39.25388 32102 ft 475 kts 208°
2026-04-29 15:22 -15.22599 39.22114 32093 ft 475 kts 206°
2026-04-29 15:22 -15.28422 39.18902 32085 ft 474 kts 207°
2026-04-29 15:23 -15.34220 39.15661 32074 ft 473 kts 208°
2026-04-29 15:23 -15.40004 39.12397 32066 ft 473 kts 208°
2026-04-29 15:24 -15.45778 39.09128 32066 ft 473 kts 207°
2026-04-29 15:24 -15.51552 39.05857 32067 ft 473 kts 207°
2026-04-29 15:25 -15.57333 39.02582 32063 ft 473 kts 208°
2026-04-29 15:25 -15.63107 38.99308 32062 ft 473 kts 208°
2026-04-29 15:26 -15.68874 38.96031 32066 ft 472 kts 208°
2026-04-29 15:26 -15.74572 38.92755 32067 ft 472 kts 208°
2026-04-29 15:27 -15.80313 38.89443 32065 ft 472 kts 208°
2026-04-29 15:27 -15.86048 38.86134 32066 ft 472 kts 208°
2026-04-29 15:28 -15.91793 38.82821 32063 ft 472 kts 209°
2026-04-29 15:28 -15.97534 38.79510 32061 ft 472 kts 209°
2026-04-29 15:29 -16.03266 38.76201 32071 ft 471 kts 209°
2026-04-29 15:30 -16.14702 38.69591 32067 ft 471 kts 209°
2026-04-29 15:30 -16.20428 38.66279 32067 ft 471 kts 209°
2026-04-29 15:31 -16.26151 38.62966 32064 ft 471 kts 210°
2026-04-29 15:31 -16.31869 38.59654 32068 ft 470 kts 209°
2026-04-29 15:32 -16.37577 38.56345 32073 ft 470 kts 209°
2026-04-29 15:32 -16.43295 38.53028 32068 ft 470 kts 209°
2026-04-29 15:33 -16.49012 38.49715 32068 ft 470 kts 209°
2026-04-29 15:33 -16.54762 38.46465 32071 ft 470 kts 208°
2026-04-29 15:34 -16.60526 38.43241 32068 ft 470 kts 209°
2026-04-29 15:34 -16.66281 38.40016 32071 ft 469 kts 208°
2026-04-29 15:35 -16.72030 38.36785 32074 ft 469 kts 209°
2026-04-29 15:35 -16.77780 38.33547 32071 ft 470 kts 209°
2026-04-29 15:36 -16.83490 38.30331 32072 ft 470 kts 209°
2026-04-29 15:36 -16.89238 38.27090 32072 ft 469 kts 209°
2026-04-29 15:37 -16.94985 38.23848 32075 ft 469 kts 209°
2026-04-29 15:37 -17.00725 38.20608 32070 ft 469 kts 209°
2026-04-29 15:38 -17.06458 38.17369 32073 ft 468 kts 210°
2026-04-29 15:38 -17.12187 38.14130 32074 ft 468 kts 209°
2026-04-29 15:39 -17.17917 38.10889 32077 ft 468 kts 209°
2026-04-29 15:39 -17.23644 38.07647 32079 ft 468 kts 209°
2026-04-29 15:40 -17.29359 38.04410 32080 ft 467 kts 210°
2026-04-29 15:40 -17.35075 38.01170 32081 ft 467 kts 210°
2026-04-29 15:41 -17.40747 37.97951 32078 ft 467 kts 210°
2026-04-29 15:41 -17.46494 37.94688 32080 ft 467 kts 209°
2026-04-29 15:42 -17.52202 37.91447 32087 ft 466 kts 209°
2026-04-29 15:42 -17.57898 37.88209 32079 ft 465 kts 210°
2026-04-29 15:43 -17.63550 37.84994 32082 ft 465 kts 210°
2026-04-29 15:43 -17.69235 37.81757 32081 ft 465 kts 210°
2026-04-29 15:44 -17.74924 37.78515 32082 ft 465 kts 210°
2026-04-29 15:44 -17.80612 37.75272 32085 ft 465 kts 210°
2026-04-29 15:45 -17.86300 37.72025 32087 ft 465 kts 210°
2026-04-29 15:45 -17.91957 37.68726 32085 ft 465 kts 210°
2026-04-29 15:46 -17.97602 37.65394 32090 ft 465 kts 210°
2026-04-29 15:46 -18.03242 37.62065 32087 ft 465 kts 211°
2026-04-29 15:47 -18.08886 37.58738 32090 ft 465 kts 211°
2026-04-29 15:47 -18.14532 37.55409 32093 ft 465 kts 211°
2026-04-29 15:48 -18.20170 37.52085 32083 ft 464 kts 210°
2026-04-29 15:48 -18.25766 37.48781 32091 ft 464 kts 210°
2026-04-29 15:49 -18.31395 37.45455 32093 ft 464 kts 210°
2026-04-29 15:49 -18.37030 37.42124 32090 ft 464 kts 211°
2026-04-29 15:50 -18.42663 37.38791 32099 ft 464 kts 211°
2026-04-29 15:50 -18.48295 37.35456 32091 ft 464 kts 211°
2026-04-29 15:51 -18.53922 37.32124 32094 ft 464 kts 211°
2026-04-29 15:51 -18.59559 37.28831 32093 ft 463 kts 210°
2026-04-29 15:52 -18.65210 37.25553 32100 ft 463 kts 210°
2026-04-29 15:52 -18.70858 37.22272 32098 ft 464 kts 211°
2026-04-29 15:53 -18.76504 37.18986 32102 ft 463 kts 211°
2026-04-29 15:53 -18.82145 37.15697 32104 ft 463 kts 210°
2026-04-29 15:54 -18.87782 37.12409 32101 ft 463 kts 210°
2026-04-29 15:54 -18.93416 37.09119 32102 ft 463 kts 210°
2026-04-29 15:55 -18.99049 37.05828 32104 ft 463 kts 211°
2026-04-29 15:55 -19.04708 37.02572 32108 ft 463 kts 210°
2026-04-29 15:56 -19.10370 36.99334 32106 ft 463 kts 211°
2026-04-29 15:56 -19.15956 36.96072 32110 ft 461 kts 211°
2026-04-29 15:57 -19.21565 36.92777 32114 ft 461 kts 211°
2026-04-29 15:57 -19.27171 36.89482 32113 ft 461 kts 210°
2026-04-29 15:58 -19.32778 36.86186 32113 ft 461 kts 210°
2026-04-29 15:58 -19.38387 36.82889 32113 ft 461 kts 210°
2026-04-29 15:59 -19.43994 36.79590 32115 ft 461 kts 211°
2026-04-29 15:59 -19.48647 36.76850 32117 ft 460 kts 211°
2026-04-29 16:00 -19.54245 36.73552 32118 ft 460 kts 211°
2026-04-29 16:00 -19.59849 36.70269 32121 ft 460 kts 211°
2026-04-29 16:01 -19.65462 36.66998 32119 ft 460 kts 210°
2026-04-29 16:01 -19.71076 36.63724 32122 ft 460 kts 211°
2026-04-29 16:02 -19.76681 36.60450 32121 ft 459 kts 211°
2026-04-29 16:02 -19.82273 36.57180 32123 ft 459 kts 211°
2026-04-29 16:03 -19.87863 36.53908 32126 ft 459 kts 210°
2026-04-29 16:03 -19.93448 36.50636 32127 ft 458 kts 210°
2026-04-29 16:04 -19.99035 36.47360 32124 ft 459 kts 210°
2026-04-29 16:04 -20.04623 36.44081 32133 ft 459 kts 211°
2026-04-29 16:05 -20.10196 36.40808 32126 ft 457 kts 210°
2026-04-29 16:05 -20.15757 36.37540 32129 ft 457 kts 211°
2026-04-29 16:06 -20.21318 36.34269 32128 ft 457 kts 211°
2026-04-29 16:06 -20.26882 36.30993 32130 ft 457 kts 211°
2026-04-29 16:07 -20.32408 36.27738 32132 ft 457 kts 210°
2026-04-29 16:07 -20.38002 36.24439 32136 ft 456 kts 211°
2026-04-29 16:08 -20.43541 36.21141 32135 ft 456 kts 212°
2026-04-29 16:08 -20.49029 36.17853 32136 ft 456 kts 211°
2026-04-29 16:09 -20.54590 36.14520 32137 ft 455 kts 211°
2026-04-29 16:09 -20.60083 36.11228 32138 ft 455 kts 212°
2026-04-29 16:10 -20.65606 36.07916 32135 ft 456 kts 211°
2026-04-29 16:10 -20.71135 36.04598 32141 ft 455 kts 212°
2026-04-29 16:11 -20.76655 36.01283 32138 ft 455 kts 212°
2026-04-29 16:11 -20.82176 35.97964 32138 ft 455 kts 212°
2026-04-29 16:12 -20.87696 35.94643 32139 ft 455 kts 211°
2026-04-29 16:12 -20.93212 35.91322 32143 ft 455 kts 212°
2026-04-29 16:13 -20.98728 35.87997 32142 ft 455 kts 212°
2026-04-29 16:13 -21.04244 35.84670 32147 ft 455 kts 211°
2026-04-29 16:14 -21.09759 35.81341 32146 ft 455 kts 212°
2026-04-29 16:14 -21.15274 35.78008 32146 ft 455 kts 212°
2026-04-29 16:15 -21.20787 35.74675 32155 ft 455 kts 212°
2026-04-29 16:15 -21.26304 35.71336 32154 ft 455 kts 211°
2026-04-29 16:16 -21.31815 35.67997 32159 ft 455 kts 212°
2026-04-29 16:16 -21.37321 35.64659 32157 ft 454 kts 212°
2026-04-29 16:17 -21.42853 35.61380 32162 ft 455 kts 211°
2026-04-29 16:17 -21.48425 35.58160 32162 ft 455 kts 210°
2026-04-29 16:18 -21.53994 35.54944 32165 ft 455 kts 211°
2026-04-29 16:18 -21.59559 35.51718 32168 ft 454 kts 211°
2026-04-29 16:19 -21.65121 35.48484 32170 ft 454 kts 211°
2026-04-29 16:19 -21.70674 35.45252 32167 ft 454 kts 211°
2026-04-29 16:20 -21.76228 35.42016 32170 ft 454 kts 211°
2026-04-29 16:20 -21.81737 35.38803 32150 ft 454 kts 211°
2026-04-29 16:21 -21.87287 35.35564 32139 ft 454 kts 211°
2026-04-29 16:21 -21.92837 35.32321 32139 ft 454 kts 211°
2026-04-29 16:22 -21.98318 35.28984 32131 ft 450 kts 215°
2026-04-29 16:22 -22.03563 35.25298 32130 ft 450 kts 216°
2026-04-29 16:23 -22.08760 35.21551 32134 ft 450 kts 217°
2026-04-29 16:23 -22.13954 35.17789 32146 ft 450 kts 217°
2026-04-29 16:24 -22.19150 35.14030 32160 ft 450 kts 217°
2026-04-29 16:24 -22.24374 35.10308 32173 ft 450 kts 216°
2026-04-29 16:25 -22.29679 35.06713 32189 ft 450 kts 215°
2026-04-29 16:25 -22.34961 35.03168 32192 ft 450 kts 215°
2026-04-29 16:26 -22.40304 34.99563 32192 ft 450 kts 215°
2026-04-29 16:26 -22.45573 34.95992 32194 ft 450 kts 216°
2026-04-29 16:27 -22.50869 34.92395 32200 ft 450 kts 216°
2026-04-29 16:27 -22.56175 34.88799 32200 ft 450 kts 215°
2026-04-29 16:28 -22.61484 34.85232 32201 ft 449 kts 216°
2026-04-29 16:28 -22.66795 34.81665 32199 ft 449 kts 216°
2026-04-29 16:29 -22.72099 34.78097 32206 ft 449 kts 216°
2026-04-29 16:29 -22.77401 34.74524 32205 ft 449 kts 216°
2026-04-29 16:30 -22.82709 34.70944 32208 ft 449 kts 216°
2026-04-29 16:30 -22.87971 34.67391 32208 ft 449 kts 216°
2026-04-29 16:31 -22.93295 34.63794 32209 ft 447 kts 216°
2026-04-29 16:31 -22.98524 34.60258 32211 ft 445 kts 216°
2026-04-29 16:32 -23.03776 34.56702 32211 ft 445 kts 216°
2026-04-29 16:32 -23.09030 34.53141 32217 ft 445 kts 216°
2026-04-29 16:33 -23.16909 34.47796 32213 ft 445 kts 216°
2026-04-29 16:33 -23.22160 34.44230 32224 ft 445 kts 216°
2026-04-29 16:34 -23.27408 34.40662 32214 ft 444 kts 216°
2026-04-29 16:34 -23.32652 34.37098 32214 ft 444 kts 216°
2026-04-29 16:35 -23.37895 34.33540 32216 ft 444 kts 216°
2026-04-29 16:35 -23.43141 34.29979 32217 ft 444 kts 216°
2026-04-29 16:36 -23.48385 34.26415 32217 ft 444 kts 216°
2026-04-29 16:36 -23.53629 34.22847 32226 ft 444 kts 217°
2026-04-29 16:37 -23.58867 34.19280 32220 ft 444 kts 217°
2026-04-29 16:37 -23.63221 34.16311 32222 ft 444 kts 217°
2026-04-29 16:38 -23.69304 34.12161 32224 ft 444 kts 217°
2026-04-29 16:38 -23.74540 34.08584 32222 ft 444 kts 217°
2026-04-29 16:39 -23.79776 34.05004 32223 ft 444 kts 217°
2026-04-29 16:39 -23.85007 34.01425 32223 ft 444 kts 217°
2026-04-29 16:40 -23.90233 33.97846 32223 ft 442 kts 217°
2026-04-29 16:40 -23.95425 33.94286 32215 ft 440 kts 217°
2026-04-29 16:41 -24.00610 33.90727 32225 ft 440 kts 217°
2026-04-29 16:41 -24.05796 33.87163 32225 ft 440 kts 217°
2026-04-29 16:42 -24.10972 33.83604 32210 ft 439 kts 217°
2026-04-29 16:42 -24.16143 33.80044 32225 ft 439 kts 217°
2026-04-29 16:43 -24.21317 33.76479 32217 ft 439 kts 217°
2026-04-29 16:43 -24.26474 33.72923 31670 ft 434 kts 217°
2026-04-29 16:44 -24.29034 33.71158 30879 ft 437 kts 218°
2026-04-29 16:44 -24.31603 33.69385 30284 ft 434 kts 218°
2026-04-29 16:44 -24.34142 33.67632 29664 ft 430 kts 218°
2026-04-29 16:44 -24.36656 33.65896 29165 ft 424 kts 218°
2026-04-29 16:45 -24.39136 33.64183 28648 ft 419 kts 218°
2026-04-29 16:45 -24.41588 33.62488 28142 ft 414 kts 217°
2026-04-29 16:45 -24.44009 33.60811 27604 ft 410 kts 217°
2026-04-29 16:45 -24.46412 33.59145 27094 ft 406 kts 217°
2026-04-29 16:46 -24.48756 33.57519 26622 ft 403 kts 217°
2026-04-29 16:46 -24.51114 33.55884 26154 ft 399 kts 217°
2026-04-29 16:46 -24.53449 33.54263 25692 ft 396 kts 217°
2026-04-29 16:46 -24.55767 33.52653 25218 ft 393 kts 217°
2026-04-29 16:47 -24.58071 33.51052 24750 ft 391 kts 217°
2026-04-29 16:47 -24.60362 33.49460 24303 ft 388 kts 217°
2026-04-29 16:47 -24.62638 33.47877 23864 ft 387 kts 216°
2026-04-29 16:47 -24.64909 33.46298 23323 ft 385 kts 216°
2026-04-29 16:48 -24.67162 33.44731 22841 ft 382 kts 216°
2026-04-29 16:48 -24.68670 33.43684 22541 ft 380 kts 216°
2026-04-29 16:48 -24.70901 33.42139 22065 ft 377 kts 216°
2026-04-29 16:48 -24.73097 33.40577 21609 ft 374 kts 217°
2026-04-29 16:49 -24.75268 33.39013 21149 ft 372 kts 217°
2026-04-29 16:49 -24.77397 33.37475 20694 ft 370 kts 217°
2026-04-29 16:49 -24.79545 33.35923 20232 ft 369 kts 217°
2026-04-29 16:49 -24.81686 33.34378 19771 ft 367 kts 217°
2026-04-29 16:50 -24.83819 33.32837 19310 ft 366 kts 217°
2026-04-29 16:50 -24.85947 33.31300 18848 ft 365 kts 217°
2026-04-29 16:50 -24.88071 33.29764 18363 ft 365 kts 217°
2026-04-29 16:50 -24.90187 33.28233 17852 ft 363 kts 217°
2026-04-29 16:51 -24.92288 33.26713 17393 ft 360 kts 217°
2026-04-29 16:51 -24.94370 33.25207 16947 ft 356 kts 216°
2026-04-29 16:51 -24.96428 33.23717 16493 ft 353 kts 216°
2026-04-29 16:51 -24.98472 33.22237 16036 ft 350 kts 216°
2026-04-29 16:52 -25.00499 33.20768 15587 ft 347 kts 216°
2026-04-29 16:52 -25.02506 33.19313 15137 ft 344 kts 216°
2026-04-29 16:52 -25.04500 33.17866 14689 ft 341 kts 215°
2026-04-29 16:52 -25.06470 33.16438 14249 ft 338 kts 215°
2026-04-29 16:53 -25.08434 33.15013 13776 ft 335 kts 215°
2026-04-29 16:53 -25.10371 33.13607 13319 ft 331 kts 214°
2026-04-29 16:53 -25.12284 33.12218 12884 ft 327 kts 214°
2026-04-29 16:53 -25.14171 33.10847 12452 ft 323 kts 215°
2026-04-29 16:54 -25.16036 33.09492 12019 ft 319 kts 215°
2026-04-29 16:54 -25.17885 33.08148 11587 ft 316 kts 215°
2026-04-29 16:54 -25.19713 33.06819 11174 ft 313 kts 215°
2026-04-29 16:54 -25.21519 33.05505 10765 ft 310 kts 215°
2026-04-29 16:55 -25.23287 33.04219 10626 ft 297 kts 215°
2026-04-29 16:55 -25.24968 33.02996 10534 ft 283 kts 215°
2026-04-29 16:55 -25.26579 33.01824 10417 ft 272 kts 215°
2026-04-29 16:55 -25.28036 33.00763 10275 ft 265 kts 215°
2026-04-29 16:56 -25.29579 32.99636 9849 ft 268 kts 215°
2026-04-29 16:56 -25.31137 32.98499 9447 ft 269 kts 215°
2026-04-29 16:56 -25.32696 32.97361 9105 ft 268 kts 215°
2026-04-29 16:56 -25.34255 32.96224 8750 ft 269 kts 215°
2026-04-29 16:57 -25.35816 32.95084 8383 ft 269 kts 215°
2026-04-29 16:57 -25.37380 32.93943 8017 ft 270 kts 214°
2026-04-29 16:57 -25.38950 32.92797 7659 ft 271 kts 214°
2026-04-29 16:57 -25.40521 32.91649 7296 ft 272 kts 214°
2026-04-29 16:58 -25.42104 32.90493 6925 ft 272 kts 214°
2026-04-29 16:58 -25.43685 32.89337 6561 ft 273 kts 214°
2026-04-29 16:58 -25.45273 32.88179 6178 ft 273 kts 214°
2026-04-29 16:58 -25.46855 32.87023 5809 ft 271 kts 214°
2026-04-29 16:59 -25.48430 32.85869 5345 ft 274 kts 214°
2026-04-29 16:59 -25.50008 32.84712 4916 ft 275 kts 213°
2026-04-29 16:59 -25.51605 32.83542 4494 ft 275 kts 213°
2026-04-29 16:59 -25.53195 32.82377 4113 ft 274 kts 212°
2026-04-29 17:00 -25.54781 32.81216 3734 ft 273 kts 212°
2026-04-29 17:00 -25.56359 32.80060 3359 ft 271 kts 211°
2026-04-29 17:00 -25.57925 32.78912 3059 ft 267 kts 211°
2026-04-29 17:00 -25.59463 32.77784 2996 ft 265 kts 211°
2026-04-29 17:01 -25.61002 32.76657 3002 ft 266 kts 211°
2026-04-29 17:01 -25.62541 32.75529 2997 ft 266 kts 211°
2026-04-29 17:01 -25.64086 32.74401 2995 ft 266 kts 210°
2026-04-29 17:01 -25.65694 32.73403 2998 ft 264 kts 204°
2026-04-29 17:02 -25.67323 32.72465 2994 ft 264 kts 206°
2026-04-29 17:02 -25.68946 32.71493 2993 ft 264 kts 206°
2026-04-29 17:02 -25.70553 32.70503 2992 ft 262 kts 207°
2026-04-29 17:02 -25.72091 32.69532 2988 ft 246 kts 207°
2026-04-29 17:03 -25.73528 32.68615 3013 ft 230 kts 207°
2026-04-29 17:03 -25.74862 32.67771 3017 ft 212 kts 206°
2026-04-29 17:03 -25.76130 32.66988 2992 ft 206 kts 206°
2026-04-29 17:03 -25.77379 32.66244 2852 ft 204 kts 205°
2026-04-29 17:04 -25.78633 32.65501 2564 ft 204 kts 206°
2026-04-29 17:04 -25.79865 32.64739 2270 ft 198 kts 206°
2026-04-29 17:04 -25.81026 32.64021 2008 ft 185 kts 205°
2026-04-29 17:04 -25.82105 32.63359 1785 ft 170 kts 206°
2026-04-29 17:05 -25.83115 32.62741 1567 ft 163 kts 205°
2026-04-29 17:05 -25.84068 32.62158 1353 ft 150 kts 205°
2026-04-29 17:05 -25.84969 32.61605 1153 ft 147 kts 206°
2026-04-29 17:05 -25.85861 32.61060 962 ft 147 kts 207°
2026-04-29 17:06 -25.86753 32.60516 794 ft 145 kts 208°
2026-04-29 17:06 -25.87632 32.59978 616 ft 144 kts 208°
2026-04-29 17:06 -25.88503 32.59443 427 ft 144 kts 210°
2026-04-29 17:06 -25.89377 32.58905 231 ft 143 kts 210°
2026-04-29 17:07 -25.90226 32.58389 154 ft 133 kts 208°
2026-04-29 17:07 -25.91015 32.57894 147 ft 131 kts 210°
2026-04-29 17:07 -25.91693 32.57483 137 ft 83 kts 208°
2026-04-29 17:07 -25.92015 32.57288 138 ft 28 kts 207°
2026-04-29 17:08 -25.92070 32.57283 140 ft 3 kts 105°
2026-04-29 17:08 -25.92066 32.57338 139 ft 8 kts 84°
2026-04-29 17:08 -25.92061 32.57402 138 ft 9 kts 84°
2026-04-29 17:08 -25.92073 32.57449 137 ft 6 kts 140°
2026-04-29 17:09 -25.92132 32.57436 137 ft 9 kts 211°
2026-04-29 17:09 -25.92178 32.57406 138 ft 7 kts 208°
2026-04-29 17:09 -25.92244 32.57366 138 ft 15 kts 208°
2026-04-29 17:09 -25.92296 32.57334 137 ft 0 kts 209°
2026-04-29 17:10 -25.92297 32.57334 137 ft 1 kts 209°
2026-04-29 17:10 -25.92349 32.57302 134 ft 13 kts 209°
2026-04-29 17:10 -25.92429 32.57253 132 ft 13 kts 209°
2026-04-29 17:11 -25.92511 32.57205 128 ft 13 kts 202°
2026-04-29 17:11 -25.92598 32.57171 128 ft 14 kts 198°
2026-04-29 17:11 -25.92682 32.57126 126 ft 13 kts 208°
2026-04-29 17:11 -25.92759 32.57080 125 ft 11 kts 210°
2026-04-29 17:12 -25.92823 32.57039 125 ft 10 kts 210°
2026-04-29 17:12 -25.92882 32.57033 126 ft 8 kts 146°
2026-04-29 17:12 -25.92902 32.57074 127 ft 5 kts 115°
2026-04-29 17:12 -25.92912 32.57095 125 ft 4 kts 118°
2026-04-29 17:13 -25.92926 32.57123 125 ft 2 kts 119°